[Date Prev][Date Next][Thread Prev][Thread Next] - [Date Index][Thread Index][Author Index]

2 Line ISS Keps 4-22



ISS
1 25544U 98067A   06111.97820508  .00013311  00000-0  89338-4 0  7798
2 25544 051.6388 116.8103 0009069 135.3818 272.2048 15.75562111424308
----
Via the sarex mailing list at AMSAT.ORG courtesy of AMSAT-NA.
To unsubscribe, send "unsubscribe sarex" to Majordomo@amsat.org



AMSAT Top AMSAT Home